Location: Commenchon
(49.6411°N, 3.1571°E)
Time: 07:18:21
(UTC+00:00)

Cosmos 1437 Rocket - Pass Details

Date: 15 May 2026
Orbit: 439 x 476 km, 81.2° (Epoch: 5 June)

Event Time Altitude Azimuth Distance (km) Brightness Sun altitude
Exits shadow 20:03:05 - 148° (SSE) 1,922 5.0 -5.8°
Reaches altitude 10° 20:03:58 10° 140° (SE) 1,624 4.6 -5.9°
Maximum altitude 20:06:40 21° 90° (E) 1,126 4.0 -6.3°
Drops below altitude 10° 20:09:24 10° 41° (NE) 1,649 5.3 -6.6°
Sets 20:11:52 0° 25° (NNE) 2,539 6.4 -6.9°
